RH
95 98 99 97 99 100 99 100 99 99 98 95 96 98 98 98 99 98 99 98 98 99 97 98 97 98 98 94 94 78 63 67 59 45 37 31 32 34 35 35 37 35 33 42 42 32 26 22 21 21 16 13 12 10 10 11 11 12 13 13 11 11 9 7 8 10 10 10 11 11 10 10 9 9 8 8 9 8 8 8 7 8 8 9 7 11 26 39
95 96 99 98 99 100 100 100 98 96 97 96 98 99 99 99 99 99 100 100 99 100 99 99 98 99 99 96 84 62 61 67 50 35 35 37 33 27 29 34 35 35 40 40 31 26 24 22 22 20 16 13 12 11 11 11 11 12 12 11 11 9 8 9 10 10 10 10 11 11 10 10 9 9 9 8 9 8 8 8 8 8 8 8 7 11 27 39
97 96 96 95 98 101 100 98 96 97 98 98 99 99 99 99 99 100 99 100 100 99 100 100 100 99 98 94 72 55 64 60 38 33 38 40 36 25 25 30 32 38 45 39 29 28 25 23 23 19 17 15 13 13 12 11 12 11 10 11 11 8 10 12 11 11 10 10 12 11 10 11 10 9 9 9 9 8 8 8 7 8 7 8 7 9 23 36
99 96 95 93 93 98 98 97 99 99 99 98 99 99 100 99 98 99 99 99 99 99 100 99 99 98 95 85 63 58 67 49 27 31 38 37 34 25 21 24 29 44 47 37 33 32 28 25 23 18 16 15 15 15 13 12 12 10 10 12 9 9 13 12 11 11 10 12 12 11 11 11 10 9 9 9 10 9 7 7 7 8 8 9 10 8 14 29
98 95 94 93 93 96 98 99 100 98 99 98 99 99 97 98 97 98 99 100 99 99 99 97 96 94 90 72 59 65 60 37 24 29 35 35 34 24 20 23 29 42 42 33 32 30 28 25 20 18 16 15 16 16 13 11 12 11 11 12 9 11 15 12 11 12 12 12 12 12 12 11 9 9 9 10 10 9 6 6 6 7 8 10 12 11 12 20
99 96 95 96 97 100 100 99 99 99 98 94 94 94 94 96 96 98 99 98 100 100 97 95 88 81 74 61 64 69 47 28 26 29 33 36 37 25 20 24 24 33 34 30 29 26 25 22 19 19 16 15 17 16 14 13 14 13 12 11 11 12 13 12 12 13 12 12 12 12 11 10 10 10 9 9 9 8 7 6 7 6 7 9 11 15 17 18
100 99 98 99 100 100 99 98 97 95 92 87 88 89 90 88 83 85 82 79 87 95 95 88 76 66 61 59 65 57 32 23 29 32 33 36 38 27 22 25 23 27 28 26 25 23 23 21 21 20 16 17 17 16 17 17 16 15 12 12 13 13 13 13 12 13 13 13 13 11 11 11 11 10 9 8 8 7 6 6 6 6 6 7 9 13 18 18
100 100 100 100 100 99 99 98 94 93 89 83 84 81 79 72 63 63 60 57 67 80 83 73 63 58 60 65 55 34 22 25 31 34 32 34 40 31 25 28 28 26 22 22 24 22 21 21 21 20 18 19 18 17 18 18 16 16 14 13 15 14 14 13 13 14 14 14 12 12 13 12 11 10 9 8 8 6 6 6 5 6 5 6 7 8 12 16
100 100 100 100 100 99 95 88 81 85 82 72 74 75 68 61 52 51 49 49 59 66 63 58 56 55 63 70 47 23 24 28 33 36 33 37 40 33 30 29 28 24 21 21 23 22 22 22 21 20 21 20 19 18 18 18 16 16 15 15 16 16 15 14 15 15 15 14 13 14 14 12 10 10 10 9 8 7 6 6 5 6 6 5 6 6 8 12
100 100 100 99 100 96 82 68 62 64 63 57 63 65 59 53 47 46 46 47 55 57 52 52 53 55 66 66 42 26 27 29 36 39 36 39 39 36 33 28 26 24 21 21 21 21 20 21 21 20 21 20 20 19 19 18 16 17 17 16 17 16 15 15 16 15 14 14 13 14 14 12 10 11 12 9 8 8 7 7 6 6 6 6 5 6 8 8
100 100 100 99 101 89 63 53 52 50 52 54 57 56 50 47 44 44 45 47 53 52 50 53 53 61 72 60 36 26 27 30 36 38 36 41 43 39 33 29 28 24 22 21 21 21 20 21 21 20 22 21 20 19 19 17 16 18 17 18 17 16 16 15 16 15 14 14 13 13 14 12 11 12 12 9 8 7 8 7 6 6 6 6 5 5 7 6
99 99 99 98 99 80 51 47 49 48 53 55 52 49 45 44 44 45 47 50 52 50 50 53 54 68 75 51 29 25 29 33 34 35 39 43 43 38 34 32 30 26 23 22 20 21 22 21 21 22 22 20 20 20 19 18 18 18 18 21 19 16 18 16 15 15 14 14 12 12 15 14 12 12 10 9 9 7 8 8 7 7 6 6 6 6 6 7
99 100 98 96 92 69 47 45 47 51 56 51 46 44 43 44 46 48 51 52 50 50 52 53 58 77 74 40 25 29 30 33 34 36 38 41 40 37 38 36 32 29 26 23 22 22 23 22 22 21 20 21 22 20 19 18 19 20 19 20 20 19 17 15 15 14 14 14 11 13 16 13 10 10 9 8 8 8 9 8 8 7 6 6 6 7 7 7
100 99 94 90 79 55 43 45 49 55 53 45 42 42 44 46 47 49 51 51 51 50 50 53 64 80 65 31 25 30 29 34 36 34 33 35 36 33 36 38 36 33 29 26 24 24 24 24 22 21 20 22 21 20 21 21 20 21 21 19 20 21 17 13 15 16 15 14 12 14 17 13 8 8 8 8 8 8 9 9 8 8 7 7 7 8 8 8
100 96 85 77 62 44 41 46 51 54 47 41 41 43 47 49 49 49 48 51 51 47 52 63 72 71 47 25 28 30 30 36 34 30 30 32 32 28 29 33 34 33 31 28 26 25 25 24 23 24 22 21 21 24 24 23 20 21 25 24 20 20 19 14 15 17 17 14 13 16 18 13 10 9 9 9 9 9 10 9 9 9 9 8 8 8 8 8
97 91 76 60 47 39 42 48 51 50 41 40 42 44 49 51 51 49 48 52 48 48 62 66 65 60 38 23 27 28 29 31 28 29 31 30 29 27 27 28 28 30 30 28 26 25 24 23 23 23 24 23 24 26 26 26 24 21 25 28 23 21 21 17 17 18 17 17 16 17 18 14 11 12 12 11 10 10 11 11 11 11 10 10 9 8 8 9
94 90 68 45 40 40 44 50 49 43 36 39 44 45 51 54 51 49 48 51 50 59 68 57 53 55 36 23 26 25 25 26 27 29 29 30 29 28 28 26 25 26 26 25 26 24 24 24 24 24 25 25 25 25 31 35 32 26 26 28 26 23 23 22 20 18 18 20 20 18 19 18 14 14 14 13 13 12 12 12 13 12 12 11 10 9 9 9
91 83 55 35 38 40 45 51 45 39 35 38 44 45 50 51 47 50 54 56 58 66 66 51 49 47 30 23 26 25 25 27 30 29 28 29 29 28 27 25 24 24 23 25 25 24 25 25 24 28 28 27 26 28 36 37 33 32 32 33 32 27 26 25 22 19 18 21 22 21 22 20 18 15 15 14 14 14 13 12 13 13 13 12 11 11 10 9
82 67 42 33 37 37 45 50 43 40 37 38 46 47 48 49 46 51 53 48 45 47 44 36 36 34 27 25 25 25 26 29 31 28 27 29 29 28 25 24 24 23 25 27 27 25 25 27 28 32 32 29 28 27 31 31 28 31 31 33 34 31 29 26 24 21 20 23 23 23 24 21 19 18 16 15 15 15 14 13 13 13 13 13 13 13 12 12
66 52 38 35 35 35 44 47 42 42 37 39 51 52 50 47 43 42 37 30 30 31 29 27 28 27 26 24 24 26 26 27 28 25 28 30 29 27 23 24 24 23 26 27 28 24 25 32 33 32 32 29 27 27 28 28 28 31 32 32 32 32 30 26 24 22 21 27 27 24 24 22 20 20 18 17 17 17 18 17 15 14 14 14 14 13 13 13
54 46 36 34 35 35 42 46 44 44 38 40 49 47 42 42 41 40 35 29 28 31 30 28 29 28 25 25 26 28 27 27 25 24 30 30 26 26 25 26 29 27 27 29 30 27 31 40 36 30 30 28 29 30 32 33 33 34 34 33 32 32 31 26 25 24 23 30 31 25 25 24 21 20 19 18 19 20 19 19 18 15 15 14 14 13 13 13
49 42 33 33 36 34 39 46 45 43 41 43 45 39 38 45 47 47 46 37 28 29 30 28 29 27 23 25 29 30 30 29 26 24 29 30 25 28 30 30 33 32 30 32 34 33 35 36 31 29 32 34 35 33 36 37 35 35 33 34 34 31 32 30 27 25 25 31 32 28 28 27 23 21 20 19 20 21 19 19 18 16 15 14 13 13 13 14
46 40 32 32 36 34 37 45 44 42 44 44 42 40 43 50 49 49 51 42 29 24 24 24 25 23 20 24 29 30 29 29 29 26 30 32 28 30 33 34 37 35 32 35 37 38 36 30 27 30 33 38 40 37 38 37 33 33 33 36 38 33 37 39 33 29 28 30 32 32 33 31 26 24 21 19 19 19 18 18 17 16 16 15 13 12 12 13
44 39 31 30 38 36 34 45 45 42 48 45 41 45 50 52 51 51 50 45 35 23 20 23 23 22 23 25 26 27 28 29 30 28 30 32 30 31 33 38 41 35 33 40 44 42 37 31 29 32 35 37 40 39 38 36 32 29 28 34 38 35 38 40 36 33 32 32 32 35 39 34 27 26 21 17 19 19 18 18 17 16 16 15 14 13 12 13
42 39 31 27 35 36 34 44 43 40 46 43 42 49 53 54 53 52 51 46 36 21 19 25 24 24 25 25 26 26 27 29 28 28 31 34 35 35 34 38 40 34 36 45 47 41 34 31 33 36 39 39 40 40 36 34 33 28 25 29 34 35 35 37 36 38 41 40 31 35 48 41 26 24 22 18 20 21 19 18 18 17 16 15 15 14 13 13
40 38 34 27 29 34 38 41 37 38 41 37 43 50 52 55 53 54 53 43 31 23 23 24 25 29 29 27 26 24 29 31 27 27 32 37 39 40 37 35 37 39 44 49 45 41 35 32 36 39 40 40 41 40 35 34 35 33 31 32 34 34 34 36 37 40 44 41 30 32 48 47 30 24 24 21 22 22 20 19 18 17 17 16 14 13 12 13
39 36 37 34 31 36 41 40 35 35 35 36 46 51 54 55 54 57 56 40 27 25 28 26 26 30 28 27 26 28 35 34 27 27 32 38 37 39 42 39 37 39 46 51 47 43 41 38 37 37 39 39 39 39 37 39 39 33 32 37 37 35 36 37 36 39 39 37 35 32 42 49 41 29 22 21 24 24 21 21 19 16 16 16 15 14 11 12
39 35 37 38 36 39 43 44 39 33 35 43 49 53 57 57 57 59 52 39 28 25 31 30 26 27 26 26 26 30 35 34 36 35 31 36 34 34 43 42 40 40 43 52 49 40 40 41 39 42 48 45 37 36 38 44 43 34 33 38 37 37 39 37 37 38 34 39 43 33 33 45 42 27 20 19 22 25 24 22 19 15 15 15 15 14 11 11
38 36 37 36 37 40 41 44 42 36 41 50 54 57 59 59 60 52 38 36 36 29 31 32 29 29 28 28 28 29 32 34 42 38 29 35 34 31 39 41 43 44 44 50 51 44 40 40 42 49 54 47 37 34 37 46 46 37 39 42 38 38 37 37 39 38 39 49 51 35 28 38 37 24 19 19 20 23 22 19 17 15 14 15 15 13 11 11
38 37 36 35 43 47 44 45 45 44 48 55 59 62 61 59 55 42 30 35 41 33 30 32 33 33 33 37 35 31 34 36 38 35 31 34 34 32 37 40 42 44 44 48 53 48 40 39 44 50 50 42 38 37 37 44 44 39 45 47 44 40 36 38 38 38 52 61 49 34 28 33 38 28 21 21 20 19 19 17 17 16 14 14 15 13 12 10
36 37 36 37 45 47 45 45 47 52 56 61 64 62 59 50 35 30 31 34 37 35 34 36 36 35 36 40 38 34 36 37 34 34 35 33 32 34 38 42 44 42 40 44 48 44 37 40 44 46 46 42 44 46 40 40 42 44 48 52 55 50 41 47 48 51 69 66 42 31 28 32 39 32 23 23 20 18 19 18 18 18 17 15 14 13 11 10
36 36 35 36 40 43 44 42 45 52 54 60 64 56 49 37 26 31 35 33 39 42 40 41 39 37 38 37 38 39 39 39 35 35 39 38 35 38 45 51 51 49 50 53 52 44 37 39 40 43 48 48 54 61 56 48 48 52 55 61 70 65 55 60 60 60 67 56 37 31 31 35 36 29 22 22 20 18 18 18 17 18 18 17 15 13 12 11
35 35 35 34 35 42 45 40 41 44 47 59 61 45 33 28 31 41 39 36 45 44 40 42 39 37 39 39 40 42 40 40 40 38 38 38 38 41 47 51 49 54 62 62 57 54 50 43 39 47 55 55 60 74 78 69 64 67 68 73 77 73 73 72 60 56 57 48 37 31 36 42 35 26 22 21 20 19 17 18 17 17 18 19 17 14 13 13
34 34 34 32 33 38 37 37 40 40 49 60 48 30 27 30 36 43 42 39 41 40 38 40 39 37 38 40 42 43 43 39 38 40 37 34 37 42 45 47 46 51 58 58 57 63 71 62 50 52 61 63 62 66 73 75 74 70 66 76 81 75 81 79 62 59 59 51 43 40 46 47 35 26 22 19 19 19 18 17 17 18 18 18 18 15 14 14
32 32 34 37 40 37 33 37 37 36 48 50 32 23 31 38 40 41 43 42 40 43 42 37 39 40 36 38 42 45 49 45 37 37 37 36 41 44 45 46 46 49 55 61 63 64 72 68 53 48 52 58 61 56 59 73 79 67 57 75 84 72 75 78 67 63 64 64 60 52 49 40 28 25 21 20 21 18 18 18 17 19 17 18 20 17 15 14
37 35 36 41 42 35 32 33 29 35 45 37 25 28 35 40 41 40 43 43 42 47 45 37 40 46 43 40 42 43 47 46 40 36 36 40 45 44 46 46 44 48 53 63 69 68 75 70 50 47 50 50 55 56 59 73 79 67 61 72 73 63 71 82 75 66 71 80 70 50 44 35 28 29 23 20 21 17 18 19 17 19 18 19 21 20 17 15
45 41 38 38 35 31 31 27 26 38 40 27 27 36 38 38 37 36 40 40 41 46 47 44 44 49 52 47 44 44 43 40 39 38 36 42 46 42 45 47 44 46 49 59 66 68 83 79 50 50 60 52 52 58 61 69 73 72 72 72 67 63 70 82 83 73 71 77 63 44 44 40 34 35 26 20 23 21 20 19 18 19 19 20 21 21 20 16
52 46 41 37 33 30 27 23 26 33 29 26 36 40 37 35 32 35 38 38 43 45 44 49 48 47 53 54 49 46 45 42 42 45 42 43 47 43 46 51 46 44 44 53 64 67 82 85 57 49 60 56 53 57 62 67 67 71 74 70 73 78 78 81 83 78 74 75 62 46 44 41 37 36 30 26 28 27 25 23 22 21 19 19 20 20 21 20
48 39 36 35 31 28 27 28 29 26 21 27 38 38 35 34 30 32 36 38 44 44 43 49 50 47 48 52 51 47 49 49 46 51 51 49 50 43 43 52 51 47 41 44 59 63 73 87 71 53 55 60 57 56 66 71 65 68 74 75 81 86 84 81 76 72 76 78 70 60 53 43 36 37 36 33 30 30 30 28 26 24 21 20 20 20 21 21
42 33 34 36 31 27 29 32 29 24 23 29 35 35 35 35 31 30 33 39 42 41 43 46 47 50 48 48 48 47 52 53 45 49 52 51 52 46 44 52 54 49 39 38 49 55 67 87 80 56 48 56 60 61 71 77 74 74 76 79 84 81 79 82 74 65 72 79 77 75 66 47 34 37 38 34 32 33 33 33 31 28 24 21 21 21 22 22
39 32 35 35 29 27 30 31 30 30 30 32 34 36 37 36 34 32 32 38 40 38 41 45 46 49 50 49 48 49 57 56 45 46 49 48 53 53 47 50 55 50 42 39 44 51 65 80 82 73 60 55 60 65 69 74 80 83 80 81 89 86 82 86 75 61 69 78 77 80 78 57 38 37 37 36 39 40 39 39 39 33 27 23 23 23 23 24
36 32 36 34 28 31 33 30 32 36 33 32 33 36 41 41 37 34 32 35 38 37 39 44 45 47 49 51 51 54 63 61 49 45 46 46 50 53 48 49 54 49 41 42 43 47 61 74 85 85 64 52 58 64 65 69 75 82 84 87 91 88 86 89 82 73 78 77 69 77 86 65 41 38 40 41 45 45 43 45 45 40 33 27 24 24 24 24
34 33 37 35 29 33 37 31 31 35 35 35 34 34 40 43 38 35 35 36 38 38 39 41 44 48 49 50 55 62 68 66 54 45 45 46 45 45 46 50 51 42 39 46 45 45 55 69 79 70 48 46 61 69 72 74 75 81 86 90 92 91 92 92 89 89 89 79 71 81 84 60 38 38 43 44 45 48 48 48 48 48 43 33 25 24 26 26
35 37 36 33 30 33 37 34 31 33 37 40 38 35 39 42 41 40 41 41 41 41 43 42 43 47 48 48 54 61 65 66 59 46 44 47 44 40 42 46 45 41 44 51 51 51 58 65 69 65 56 58 65 70 75 77 77 82 89 94 97 97 97 93 89 92 89 78 79 89 81 56 42 43 45 45 48 51 52 51 52 53 51 44 33 27 29 30
38 41 37 34 34 35 38 39 37 35 39 42 40 40 42 41 41 44 44 43 41 41 43 40 39 43 46 47 53 55 56 62 65 54 46 46 43 38 39 42 41 40 46 52 49 51 62 68 71 78 80 77 74 77 81 80 80 82 88 96 97 95 97 93 87 87 85 79 82 88 80 65 55 52 50 51 56 59 59 57 56 55 54 52 45 36 32 32
37 38 36 34 35 37 40 43 43 38 37 40 40 42 46 42 39 43 45 46 44 40 41 40 39 45 47 51 63 66 56 53 59 57 50 49 47 41 37 40 42 42 48 51 43 45 61 66 67 81 90 86 86 89 86 86 92 90 89 94 93 91 95 94 87 85 87 89 84 79 80 82 74 65 62 63 66 69 68 67 65 62 59 57 54 48 39 33
39 40 42 43 39 38 40 42 43 43 43 44 43 46 49 44 40 43 46 47 45 42 42 41 42 48 51 56 69 74 64 54 53 55 53 50 48 43 36 36 41 44 47 45 36 45 65 62 56 74 89 85 85 87 81 83 94 99 96 95 92 92 93 93 91 89 92 95 84 71 79 93 88 77 75 77 77 76 73 72 72 69 65 62 58 56 49 38
42 45 50 55 49 40 42 45 47 51 51 49 48 50 51 46 45 50 49 45 43 43 45 47 46 44 48 57 64 69 72 65 57 56 55 52 51 49 41 36 37 41 44 41 37 48 65 60 53 68 84 83 75 71 70 72 83 96 98 91 90 92 94 95 95 93 96 98 89 80 87 94 89 82 80 80 83 83 76 72 73 72 71 70 67 64 59 47
44 46 51 60 55 45 49 56 56 56 52 47 46 49 51 51 51 53 53 51 49 45 47 55 54 44 46 56 59 65 73 72 70 69 62 57 58 55 49 44 39 36 38 40 42 47 54 55 52 60 77 81 67 57 56 60 76 95 94 85 87 91 91 93 94 93 96 97 92 91 94 87 79 80 81 77 78 79 73 69 71 72 74 77 75 72 67 53
48 49 52 55 52 49 54 58 55 51 47 44 44 48 53 57 56 55 56 58 56 50 49 57 56 47 49 55 57 62 63 62 69 71 62 62 64 56 51 48 41 37 39 42 46 48 50 53 51 52 66 71 61 55 53 55 76 97 90 80 87 90 87 91 93 91 94 95 91 92 93 83 77 83 87 80 75 76 74 70 70 71 76 81 83 82 77 62
58 59 61 53 46 50 53 51 49 45 39 38 42 48 55 56 56 60 59 55 54 52 51 55 55 51 50 51 53 57 55 55 61 60 56 58 59 53 48 45 44 45 46 46 47 48 50 53 50 48 56 54 49 56 58 56 74 94 90 84 90 92 91 93 92 90 94 97 95 92 90 89 89 93 94 87 80 78 75 73 72 71 73 78 82 83 81 71
64 62 63 55 46 47 47 45 46 42 39 44 49 52 54 50 51 61 58 49 49 51 49 52 56 56 53 52 54 56 55 56 57 53 49 47 46 46 44 43 46 47 46 47 47 45 48 53 52 53 56 48 42 53 60 58 70 86 85 81 86 90 91 93 89 86 91 98 100 97 95 95 97 97 97 94 88 83 81 80 79 79 74 72 74 76 76 74
Wind_Speed
17 18 18 17 17 17 16 16 15 15 15 14 14 14 14 14 14 14 13 13 14 14 14 15 15 16 17 16 16 17 15 12 9 4 1 6 7 6 5 2 2 2 3 3 4 5 5 6 5 4 7 5 5 5 6 7 6 5 7 9 9 10 10 8 7 2 1 4 5 2 2 4 5 4 2 3 9 12 10 9 8 5 5 5 2 6 6 5
18 18 18 18 18 17 16 16 15 14 14 14 14 14 14 14 14 14 14 14 14 14 14 14 15 15 16 16 16 15 13 11 8 1 6 7 7 8 7 3 3 3 3 4 4 5 5 5 4 4 6 4 4 4 5 6 7 7 7 9 10 10 4 2 2 0 1 1 0 2 2 4 5 2 2 5 10 11 11 11 10 9 9 7 1 4 3 2
18 18 18 18 18 17 17 16 15 15 14 15 14 14 14 14 14 14 14 14 14 14 14 14 14 15 15 15 15 13 12 10 4 5 7 8 8 9 6 4 2 1 1 3 3 3 5 2 3 5 6 4 4 5 6 6 7 8 8 8 10 8 3 0 2 2 2 3 5 6 3 5 6 4 4 6 10 10 12 12 11 11 10 8 2 3 2 2
19 19 19 18 18 17 17 16 15 15 15 14 14 14 14 14 14 15 14 14 14 14 14 14 14 14 14 15 14 12 10 8 1 6 6 7 8 8 6 4 4 2 1 2 2 3 4 4 5 6 6 5 4 5 7 7 6 7 8 9 8 4 4 4 3 5 4 4 6 7 6 8 9 7 7 8 10 11 12 13 12 9 7 4 3 4 4 4
19 19 19 19 18 17 16 16 15 15 15 15 15 14 14 15 15 15 15 15 15 14 14 14 14 14 14 14 12 8 7 3 4 5 6 7 6 7 6 5 6 3 1 0 1 3 4 5 5 5 6 5 4 5 7 7 5 7 8 11 10 4 6 5 3 5 6 6 7 7 9 10 9 9 10 12 12 10 9 11 10 7 6 6 7 6 6 6
19 19 19 18 18 17 16 15 15 15 15 15 15 15 15 15 16 16 16 15 14 14 13 13 13 13 14 13 8 6 5 2 4 4 6 6 5 6 4 4 6 3 1 0 2 3 4 5 5 5 5 4 4 5 4 5 5 7 8 9 10 8 9 7 5 6 5 7 9 8 9 8 10 12 12 16 16 12 11 12 12 10 9 9 8 7 7 8
18 19 19 18 18 17 16 15 15 14 14 14 15 15 15 15 16 15 15 14 13 13 12 12 12 13 14 11 5 6 0 6 4 4 5 4 4 5 4 2 3 2 1 1 1 2 3 4 4 3 3 3 3 4 1 3 7 8 8 6 7 8 8 7 6 6 6 8 9 8 9 9 13 13 12 17 18 17 17 17 18 15 12 12 11 9 8 9
19 19 19 18 18 18 16 15 15 14 14 15 15 16 16 15 15 15 13 12 12 11 10 10 10 12 13 9 5 3 6 7 4 4 4 4 3 4 4 1 1 2 1 1 1 1 2 2 2 1 4 2 1 4 2 5 9 9 9 5 5 6 7 8 7 8 8 8 8 10 12 13 15 13 14 18 17 16 17 17 19 17 14 14 15 13 11 10
19 19 19 18 18 18 16 14 14 14 15 16 16 16 16 15 15 14 11 11 12 9 8 9 10 12 11 8 8 1 8 4 2 3 3 3 2 2 2 2 2 3 2 1 1 3 2 1 1 2 5 3 1 5 3 5 6 5 7 6 6 8 8 9 9 10 10 8 8 12 15 15 15 14 17 20 17 16 17 17 18 18 18 16 16 15 14 12
20 19 19 19 19 17 15 13 13 14 15 16 17 17 16 16 15 12 9 10 10 7 7 9 10 11 8 6 7 2 5 3 2 2 4 3 4 4 5 4 2 3 3 2 2 3 3 2 2 3 5 4 4 4 4 6 3 1 7 8 9 11 10 10 10 11 11 10 12 14 16 17 15 14 15 16 15 17 18 18 17 17 17 16 16 15 14 14
20 20 20 19 18 17 13 12 12 14 15 16 17 16 16 16 13 9 8 9 7 5 7 9 9 8 6 7 3 5 3 3 2 4 6 6 6 7 7 5 5 4 3 3 3 3 3 3 3 4 3 2 3 5 6 7 6 6 9 10 12 13 12 12 12 13 11 10 12 14 17 18 16 16 17 14 13 14 15 16 17 16 15 15 16 15 13 13
20 20 19 19 18 17 12 11 12 14 15 16 16 16 17 14 11 8 7 6 4 5 8 9 8 6 5 5 4 6 3 3 5 6 7 7 8 8 8 7 8 7 5 5 3 2 3 3 4 6 4 3 5 5 3 3 6 8 9 10 12 12 12 14 13 10 9 8 8 10 14 16 17 20 21 15 14 15 15 16 15 15 14 14 14 13 12 13
20 20 19 19 18 16 12 11 12 14 15 15 15 17 15 11 9 7 6 4 4 6 7 7 6 3 5 1 6 5 4 5 7 6 6 7 8 9 8 8 9 9 8 7 4 2 4 4 6 8 6 6 7 4 4 5 8 9 9 10 9 10 11 10 9 6 7 6 5 7 10 11 13 16 17 15 16 18 17 16 15 14 13 13 13 11 12 12
21 20 19 19 18 15 12 11 12 13 14 14 16 16 12 9 7 6 6 5 5 6 6 6 6 3 4 3 4 6 8 5 5 6 7 6 8 8 6 6 8 9 8 8 6 4 5 5 6 8 7 7 7 6 8 9 8 8 9 8 7 8 5 6 7 5 7 5 6 8 9 9 10 8 8 10 13 14 14 15 14 13 12 11 11 11 11 11
21 20 19 18 17 13 11 11 12 12 13 15 16 12 9 8 5 6 7 7 5 5 4 5 5 4 3 5 3 6 8 4 5 8 8 7 7 6 2 3 6 7 7 7 6 4 5 6 7 8 6 6 7 8 9 7 7 7 7 7 6 6 3 6 7 6 7 4 7 10 8 9 10 5 3 5 8 10 13 13 13 13 12 12 11 11 11 11
21 20 18 17 16 12 11 11 10 11 13 16 15 9 8 6 4 5 8 7 4 3 3 3 3 5 2 5 2 4 7 6 7 9 8 7 6 6 6 5 4 6 6 6 6 5 5 6 7 8 7 6 7 8 7 7 7 6 6 6 6 6 5 4 5 5 7 6 7 11 10 9 7 3 4 6 8 11 13 13 14 14 13 13 11 10 10 10
21 20 18 16 14 12 11 9 9 11 13 16 12 7 6 4 3 5 9 8 3 1 1 3 3 4 1 3 3 6 10 9 7 8 7 6 5 6 7 5 4 5 7 8 8 7 7 7 6 6 7 7 7 7 7 7 6 4 5 6 8 9 8 7 4 5 6 7 9 12 13 14 11 7 8 9 11 13 14 14 14 13 13 13 12 12 12 11
21 20 17 15 13 11 10 8 8 10 13 16 10 5 5 3 2 5 6 5 2 4 4 3 2 3 2 4 7 10 14 10 6 7 7 8 6 5 6 5 4 5 8 8 8 8 6 5 6 6 7 7 6 7 7 8 7 8 7 7 9 10 10 10 8 5 6 9 13 14 15 17 16 14 13 13 14 15 16 15 13 13 14 13 13 13 13 13
21 19 16 14 12 11 8 7 7 10 14 15 9 3 3 2 1 2 3 3 2 1 1 2 3 2 3 8 9 11 15 8 5 6 8 11 8 8 9 6 5 6 8 6 5 6 4 5 6 6 7 6 7 8 9 12 13 14 13 12 12 12 12 13 12 10 10 13 16 15 16 18 17 16 15 14 14 16 16 15 14 13 13 13 13 13 14 14
21 18 15 13 11 10 7 5 7 10 13 14 8 2 1 1 2 2 1 2 4 4 3 3 4 3 5 8 8 13 13 5 5 4 10 14 12 12 9 4 7 7 6 5 4 2 2 6 7 6 8 8 9 11 13 14 15 16 15 14 15 14 13 14 14 12 11 13 15 16 18 20 19 17 15 14 14 15 16 16 16 15 14 13 14 15 16 16
20 16 14 12 11 9 6 3 6 9 12 13 8 2 1 4 2 2 3 2 4 2 2 2 3 4 6 7 8 12 10 4 5 3 10 15 13 10 5 3 7 4 1 5 6 2 3 7 8 7 9 10 11 11 12 14 14 14 13 12 13 12 12 14 15 13 12 12 14 17 19 20 19 17 16 16 16 17 17 17 17 18 17 15 16 18 17 15
19 15 12 10 10 9 5 2 5 8 9 10 8 4 5 6 4 3 3 1 5 1 3 1 4 4 6 5 3 8 9 6 5 3 12 16 11 7 6 5 6 4 4 5 5 5 5 6 6 8 9 10 11 11 12 13 13 12 10 11 11 10 11 13 14 13 11 10 12 16 17 18 19 18 17 17 17 17 17 18 18 18 18 17 17 18 18 17
18 14 10 9 9 10 5 1 4 8 7 6 7 7 5 4 3 2 4 4 3 2 1 2 3 6 10 5 3 9 9 5 5 7 13 15 9 6 7 6 6 7 5 4 5 6 6 6 8 9 8 10 11 11 11 11 11 10 9 9 10 10 11 10 9 9 8 9 12 16 15 15 18 18 19 19 20 19 19 20 20 19 19 19 20 19 18 19
18 13 9 7 8 9 6 1 3 6 5 4 5 6 3 4 3 3 4 4 1 2 2 4 3 6 10 7 7 12 7 3 6 8 11 12 8 5 5 6 6 7 3 5 8 8 10 10 8 8 9 10 11 10 10 10 8 10 10 10 11 12 13 10 9 9 10 12 15 16 14 12 15 16 16 16 18 19 19 20 20 20 20 20 21 20 20 19
16 13 9 7 6 8 7 1 2 4 2 1 3 4 2 4 3 3 4 3 2 2 3 1 1 4 9 9 10 11 5 1 5 7 9 9 8 6 4 2 4 6 6 7 9 9 9 6 3 9 10 10 11 10 10 9 8 9 10 9 10 13 13 13 13 11 9 10 9 9 10 10 11 12 10 8 11 14 15 17 19 19 20 20 20 20 21 20
15 12 9 7 6 7 5 0 3 4 3 2 3 1 3 5 4 3 4 4 2 3 3 4 3 5 9 9 11 11 5 2 5 5 8 7 4 5 5 2 2 5 7 7 8 5 4 5 5 10 11 10 11 10 9 8 8 8 4 4 8 11 12 12 12 10 8 8 5 4 8 10 10 10 9 9 10 12 12 15 16 16 17 18 18 19 20 20
13 11 9 8 7 7 4 1 4 4 2 2 1 3 4 6 4 3 4 3 2 4 5 6 4 6 10 9 10 9 4 6 6 3 9 7 4 4 5 5 2 4 4 4 6 1 3 9 9 10 11 10 9 7 5 4 7 7 4 4 9 12 12 12 12 9 8 10 11 10 11 10 10 11 11 11 13 14 15 16 16 15 16 18 19 20 20 20
11 11 9 8 8 6 4 2 4 3 2 3 3 5 6 5 3 4 4 1 3 4 3 4 3 6 10 8 7 5 2 6 6 5 9 6 3 4 5 5 6 7 4 4 6 7 6 11 11 11 10 8 8 7 5 4 8 8 7 8 11 11 12 12 11 10 9 10 11 10 10 10 10 10 11 12 14 15 16 16 16 16 16 17 18 20 21 20
10 9 9 9 7 6 5 3 2 3 2 3 5 6 6 4 4 4 4 0 2 2 0 2 3 6 11 9 6 7 4 3 5 7 8 3 3 4 4 4 8 10 6 6 7 8 9 11 11 9 7 7 9 8 5 6 8 7 8 10 11 11 12 11 9 8 9 9 12 11 9 9 9 8 8 9 11 12 11 12 13 14 15 16 17 19 20 19
9 8 9 9 6 6 5 2 2 3 3 5 6 4 3 4 4 4 1 2 2 3 1 3 6 7 11 9 6 10 7 4 6 7 5 1 3 3 2 1 6 9 5 7 8 10 11 8 4 4 6 7 9 9 7 7 9 9 9 10 11 10 10 9 8 7 7 9 12 12 10 10 10 7 5 5 6 6 6 7 8 10 13 15 15 17 18 18
7 8 9 8 6 6 4 1 3 6 6 7 4 3 5 4 3 2 2 2 2 5 4 4 8 9 11 9 7 11 8 5 8 8 6 3 1 5 6 1 3 5 3 2 5 9 9 4 2 2 3 6 8 9 7 6 8 8 7 7 7 7 7 6 6 5 6 9 8 9 9 10 10 6 4 3 3 4 6 7 7 8 10 12 14 16 16 17
5 7 9 9 8 9 6 4 6 9 7 3 3 5 5 3 1 2 3 0 2 5 6 6 10 9 10 10 9 11 9 5 9 10 7 5 4 8 8 7 9 7 6 9 11 11 9 4 3 4 1 4 6 8 6 4 5 5 6 6 6 6 4 5 5 4 7 9 8 8 8 9 10 11 12 11 10 10 10 10 10 10 10 10 12 15 15 15
6 7 9 11 11 11 9 7 8 9 4 3 6 4 4 2 2 2 3 3 2 4 6 6 10 9 8 8 9 11 8 5 10 10 6 5 5 7 7 8 11 9 7 10 11 10 8 3 3 1 2 1 3 7 5 3 4 4 5 4 5 5 4 5 6 5 7 8 7 6 6 9 10 9 10 11 12 11 11 11 11 12 11 10 10 12 15 15
7 8 9 13 14 14 12 9 10 8 1 6 5 4 2 1 2 1 2 5 4 5 8 8 9 9 6 7 9 10 7 7 10 9 6 4 6 8 7 8 12 10 8 9 8 8 8 4 1 3 4 0 3 7 6 6 6 7 6 4 5 6 5 6 6 6 8 9 8 5 4 8 7 6 7 8 9 8 8 9 9 10 11 10 11 12 14 15
5 8 10 12 13 16 15 11 10 4 4 5 4 1 1 3 2 1 3 5 4 7 10 8 7 8 6 6 7 7 4 6 10 8 5 5 6 8 8 9 12 11 9 9 7 6 9 7 1 1 3 3 6 7 5 6 5 4 3 4 4 4 4 6 8 10 11 12 10 7 7 8 9 12 13 11 10 8 8 8 8 8 9 9 10 11 12 14
2 5 8 9 11 16 15 12 10 2 5 6 2 3 3 3 3 3 4 5 5 8 11 7 5 7 8 6 6 7 4 5 9 7 4 4 3 8 10 8 11 12 10 8 6 5 7 7 4 4 5 4 6 8 4 3 3 3 2 2 2 3 3 6 9 10 10 10 8 7 9 9 9 10 8 7 8 7 6 8 8 8 8 8 9 10 10 12
3 2 4 8 14 16 12 10 8 3 5 4 2 4 2 2 3 3 4 6 5 5 8 6 6 7 8 7 7 11 10 7 7 6 5 4 1 6 11 8 9 12 11 7 5 2 4 10 8 4 5 3 2 5 2 5 4 4 2 4 5 4 4 5 5 5 6 8 7 8 11 11 8 5 3 4 5 4 3 5 6 6 8 9 9 10 10 11
3 3 0 7 17 16 8 9 7 5 4 2 5 4 1 2 3 3 5 6 4 4 6 6 6 6 8 9 8 11 12 8 7 7 5 5 3 5 9 8 8 13 11 6 4 1 2 9 6 1 3 7 3 4 2 5 7 5 5 7 5 3 3 3 3 5 7 8 8 8 10 10 8 6 6 6 6 6 7 6 5 5 6 8 10 11 12 11
3 4 2 7 20 15 6 6 6 4 1 2 4 3 1 2 3 2 4 4 4 4 6 5 5 5 7 9 9 10 11 8 8 6 4 6 4 5 10 9 9 14 14 7 5 3 2 5 4 1 3 6 3 2 5 2 3 4 5 5 2 3 4 3 3 5 7 7 8 9 9 7 5 7 8 8 7 9 11 9 8 7 6 7 8 10 11 12
3 4 2 10 22 15 4 4 4 2 2 3 3 3 1 1 3 3 3 4 4 3 5 6 6 6 8 9 8 9 9 8 7 5 3 6 5 5 10 10 10 14 15 9 5 5 2 2 5 7 7 5 3 4 6 6 4 2 4 6 4 3 3 4 5 5 5 6 7 8 9 7 6 7 7 9 11 14 15 14 12 10 8 7 7 9 9 10
3 2 2 13 21 10 1 1 2 3 3 3 3 2 2 3 3 3 2 1 3 1 3 5 6 6 7 8 9 9 8 7 5 4 3 5 5 4 8 11 11 13 13 10 8 7 3 2 6 10 10 6 4 6 4 5 6 4 5 7 7 6 5 5 5 2 3 5 6 8 9 8 5 4 5 11 15 17 18 17 15 13 12 9 7 8 9 10
3 1 3 16 19 5 3 1 3 2 2 3 3 1 2 3 3 4 2 0 2 0 1 3 4 7 6 7 9 9 7 6 4 4 4 5 6 6 8 11 11 11 11 10 9 8 4 3 6 8 9 5 5 6 3 3 5 3 2 4 6 6 6 6 6 4 4 6 7 8 8 5 2 2 7 13 16 17 17 16 15 14 14 12 10 9 10 10
2 2 3 15 16 3 4 1 3 2 4 3 1 0 1 2 2 3 2 2 3 2 3 3 4 5 6 8 9 7 6 5 4 4 5 5 6 6 8 9 10 11 11 9 9 9 6 4 5 8 6 1 5 4 3 2 4 2 1 3 5 6 7 7 7 7 6 6 7 6 7 6 4 6 12 16 17 16 14 14 15 14 13 14 14 12 11 11
2 1 2 12 14 4 3 2 2 3 4 2 1 2 1 1 3 4 3 3 4 4 5 4 3 4 5 8 8 6 5 3 3 5 5 5 6 6 7 8 9 11 11 8 8 8 6 4 6 9 7 2 1 1 1 0 4 4 3 3 4 7 11 9 6 6 4 4 7 7 8 8 8 11 16 17 17 17 15 15 15 14 13 14 15 14 13 13
1 1 1 7 13 6 2 3 3 2 3 2 2 4 1 1 2 2 4 3 3 4 6 5 4 4 6 8 9 7 5 2 4 6 5 6 7 6 7 9 8 10 12 10 9 7 5 5 5 6 6 7 6 5 4 5 5 5 5 5 6 10 12 9 6 5 4 6 9 8 9 12 15 17 19 18 18 19 18 17 15 14 14 15 15 15 14 13
1 1 1 2 6 6 4 2 3 2 3 2 1 3 3 2 1 1 2 2 1 4 6 4 3 5 6 9 9 6 6 5 5 6 6 8 7 6 9 9 5 11 15 12 10 8 4 3 3 2 4 7 8 6 7 7 5 5 7 10 12 13 13 10 7 6 8 10 10 8 9 15 20 21 21 21 20 21 19 17 15 14 14 14 14 15 15 14
1 1 3 2 1 3 3 3 3 3 2 2 1 2 3 3 2 1 1 1 2 5 6 2 2 6 9 10 7 5 8 10 5 4 7 8 6 7 10 6 3 12 17 12 10 9 4 3 6 4 5 8 9 11 11 9 4 3 6 12 14 14 14 12 8 9 10 10 9 10 13 17 19 20 22 24 23 22 20 17 15 14 14 13 13 15 17 17
2 1 2 2 2 2 2 3 4 3 1 1 1 1 3 4 4 3 1 2 3 3 3 1 3 9 10 8 7 5 8 9 5 5 8 7 7 9 9 5 4 13 16 10 10 8 4 5 9 8 8 9 10 11 9 7 3 4 2 13 16 15 16 13 11 11 10 8 10 16 19 19 16 17 22 24 23 22 21 18 15 13 14 14 14 15 17 18
1 1 2 1 1 2 2 3 3 2 1 1 0 1 3 3 4 4 1 3 3 1 2 4 7 10 9 6 6 5 6 6 5 6 8 8 8 8 7 5 6 12 14 11 9 8 5 5 8 9 8 8 10 10 7 5 2 6 3 15 16 16 17 13 11 11 10 11 13 17 21 18 13 14 21 24 22 20 19 16 13 12 12 13 14 15 16 18
1 1 1 2 1 1 1 1 3 3 1 1 1 1 2 2 3 4 2 3 4 2 2 6 10 12 10 6 5 6 6 8 9 9 9 9 7 5 5 6 8 12 14 11 9 8 7 7 9 9 5 4 7 11 11 8 1 6 6 18 19 19 20 15 11 11 12 12 13 16 18 15 12 15 21 23 20 18 18 16 13 10 9 10 12 13 14 17
2 2 2 3 1 1 1 1 2 3 1 0 1 2 1 1 3 5 4 5 6 5 6 8 10 11 10 7 7 9 10 11 12 11 10 9 7 4 4 6 9 12 12 11 9 8 7 7 8 8 4 3 7 10 12 10 1 5 8 22 23 21 21 18 13 13 14 13 15 17 15 12 15 18 20 23 22 22 22 19 15 12 11 10 9 9 12 17
0 0 2 4 1 1 1 1 1 3 1 2 2 1 2 2 2 4 4 3 5 5 5 7 9 9 8 8 10 11 12 12 12 11 9 7 7 6 5 6 8 9 10 11 9 8 9 8 6 7 6 5 8 10 12 10 2 2 9 19 21 19 20 18 17 17 15 9 11 17 15 14 20 20 20 24 25 24 22 18 14 13 13 12 11 10 11 15
Wind_Direction
349 346 345 343 342 342 340 340 341 341 340 340 337 335 334 333 332 330 330 327 328 328 328 330 329 332 331 330 328 328 337 331 315 299 40 36 18 8 3 339 259 210 186 220 241 234 214 210 204 206 226 207 214 226 195 208 218 210 224 230 235 239 240 250 241 236 257 144 128 131 127 233 226 180 219 250 230 232 236 235 232 226 227 236 332 344 337 346
348 345 344 343 343 342 340 341 341 340 338 337 335 333 333 331 331 329 327 326 326 326 327 327 327 330 330 331 330 335 343 314 282 62 51 12 6 18 15 353 273 210 195 249 249 245 241 218 204 217 233 214 193 199 185 194 208 217 227 231 235 242 252 301 266 75 267 243 129 217 182 230 239 237 259 243 230 224 231 230 219 216 214 208 207 339 321 315
347 344 344 342 342 342 341 341 338 337 335 334 334 332 331 329 329 326 325 325 324 325 325 324 326 327 329 328 330 339 334 293 255 73 35 353 4 20 12 3 347 176 209 274 264 258 267 243 218 234 235 227 205 197 205 190 194 224 233 237 239 246 266 15 266 265 262 293 274 249 244 251 244 243 246 244 243 239 237 232 220 215 212 198 147 353 325 283
346 344 343 342 342 341 341 338 335 336 334 334 332 330 330 327 325 322 322 321 320 323 321 323 324 324 329 326 331 340 313 273 94 50 16 352 4 20 19 37 61 87 152 265 248 247 245 224 222 237 241 231 206 209 223 194 190 227 228 243 251 260 258 229 242 260 267 283 268 266 274 259 248 247 247 244 246 241 232 231 229 224 224 241 292 315 334 306
345 344 343 342 341 340 338 336 334 334 332 332 330 328 327 323 322 319 318 317 317 319 316 319 320 322 327 329 340 332 288 262 66 29 355 352 7 25 31 68 80 89 168 207 192 203 203 212 217 221 239 237 200 214 225 200 211 242 233 250 264 277 264 250 251 262 271 274 265 264 264 260 259 258 253 247 244 241 236 234 233 238 259 280 283 293 316 301
345 343 342 340 338 337 336 335 332 331 330 329 328 327 324 321 319 316 316 315 315 316 315 316 318 327 332 338 341 285 271 45 50 2 349 347 8 32 42 81 68 72 201 60 118 177 186 199 216 217 237 240 214 221 221 197 219 248 237 240 255 260 262 268 268 264 270 265 261 260 263 265 260 258 256 253 251 253 264 265 261 261 270 276 273 278 286 280
344 342 341 339 337 336 336 334 331 331 328 327 327 326 324 324 323 320 319 319 318 317 315 318 327 338 341 343 306 248 262 66 57 341 339 351 9 27 26 60 41 11 269 275 134 184 191 203 232 245 246 239 231 232 203 216 224 245 249 233 245 255 260 267 265 262 263 259 262 264 264 258 253 257 255 253 254 255 262 267 268 268 268 267 263 257 259 266
344 342 341 339 338 337 335 332 330 330 327 327 327 327 328 330 332 328 325 325 324 320 321 329 340 346 349 343 282 219 72 59 49 332 333 9 359 11 18 50 245 297 301 306 8 309 227 228 270 275 256 264 258 236 225 249 230 231 253 255 249 255 252 255 256 257 260 259 260 256 255 253 253 258 256 252 252 254 258 262 266 269 265 260 257 252 249 252
344 342 341 340 339 336 334 333 333 330 329 330 329 330 333 336 338 333 331 331 326 325 334 341 348 350 354 330 279 67 62 22 360 339 346 11 311 317 319 220 224 281 291 333 342 295 276 299 334 317 293 316 275 250 250 258 236 214 253 269 260 260 256 255 256 256 256 256 254 254 254 253 252 257 257 252 251 254 256 256 261 265 263 258 255 252 248 245
344 342 341 341 340 337 336 336 338 334 333 336 335 336 339 340 339 335 334 332 329 336 352 354 351 350 348 297 275 64 56 322 298 326 323 313 274 257 247 232 232 264 282 293 262 283 313 342 338 313 296 286 255 260 248 258 293 303 264 270 266 264 260 257 258 256 257 255 252 255 258 257 253 252 252 248 245 248 249 250 250 254 257 255 253 251 245 242
344 343 341 341 340 338 339 340 342 339 339 341 340 342 341 340 339 339 338 335 341 360 3 356 350 354 320 280 311 63 38 313 301 295 304 300 261 248 252 243 236 247 266 263 251 280 301 312 310 279 275 313 275 255 238 255 290 288 272 274 266 262 258 251 250 252 254 255 252 254 259 259 251 247 249 249 247 243 241 245 245 246 250 249 250 249 244 239
345 343 341 341 340 340 343 346 345 345 344 343 344 343 338 340 343 343 343 348 15 16 3 352 353 0 294 277 42 44 359 317 310 299 296 288 266 263 265 246 234 241 257 260 257 255 263 286 282 267 284 333 285 267 266 260 271 273 271 272 266 261 254 245 244 247 254 256 252 257 260 255 244 242 247 245 246 248 247 249 249 248 250 249 249 248 244 237
345 343 342 342 341 343 347 349 349 349 345 345 346 341 339 345 348 353 6 26 32 5 355 351 2 338 276 3 62 17 349 327 319 318 296 280 278 275 262 246 237 238 251 263 265 237 248 272 269 273 292 291 276 303 322 271 258 266 264 266 268 266 256 232 221 226 242 242 226 246 260 254 241 239 241 235 236 242 244 247 249 249 248 247 246 247 245 235
345 343 342 341 341 347 351 352 352 352 347 347 346 340 346 352 357 26 31 25 5 351 351 359 12 287 268 78 79 1 6 343 325 339 323 302 294 281 249 241 240 237 243 254 264 257 254 262 262 269 271 262 275 300 288 260 245 257 264 261 251 261 258 158 170 218 233 205 187 229 254 263 260 248 226 222 231 237 243 245 245 246 244 242 240 240 241 233
345 344 342 341 344 350 354 355 356 355 350 347 346 345 355 358 24 53 25 9 346 348 6 3 6 278 260 95 97 1 12 354 349 354 348 337 316 313 305 264 245 232 236 244 255 253 245 244 249 268 269 246 263 275 270 260 242 242 261 266 241 250 251 166 186 232 244 208 191 227 255 262 257 256 219 212 225 233 241 243 242 245 245 245 243 237 238 231
345 344 343 344 348 352 356 360 1 0 352 348 348 349 357 8 60 44 10 6 348 17 30 344 333 286 309 66 42 356 8 352 354 356 358 358 344 348 338 297 243 216 221 225 226 222 219 233 248 269 276 253 252 263 269 271 255 230 238 268 271 264 271 238 189 199 241 256 231 231 255 267 251 231 220 225 237 237 239 244 244 248 246 245 246 241 238 233
345 344 346 348 352 354 359 6 8 6 358 351 350 349 359 23 73 12 1 5 360 77 319 297 302 277 251 57 351 351 353 343 347 350 359 6 350 339 331 306 254 214 212 209 208 215 211 226 249 254 256 249 256 271 273 269 266 253 251 273 281 272 275 270 218 188 222 255 256 246 254 263 263 254 236 233 246 247 244 246 245 246 246 243 245 244 239 235
345 345 347 352 355 356 1 11 12 14 4 353 350 349 358 18 29 350 344 346 312 220 238 266 295 256 191 7 349 349 342 331 323 329 353 1 338 316 322 304 275 244 236 221 201 213 212 219 249 257 260 255 254 261 265 274 287 295 292 289 286 279 276 271 263 254 250 260 265 263 262 263 264 260 252 245 246 248 248 248 247 245 245 243 243 244 242 239
346 345 349 353 356 358 3 12 16 17 6 357 357 354 353 357 343 315 275 286 306 209 298 356 353 320 325 340 343 342 334 315 285 314 356 357 333 304 303 280 266 261 261 259 208 212 232 249 253 258 270 268 264 264 270 283 289 290 287 282 281 279 276 273 274 276 275 273 269 264 267 268 267 262 256 251 244 245 248 248 249 246 244 245 244 244 243 242
348 346 347 351 358 360 1 11 17 14 10 8 359 291 255 277 234 176 136 18 39 38 21 23 6 339 331 333 343 342 333 287 253 321 0 353 329 309 308 273 266 256 256 293 284 260 280 271 265 270 285 291 289 283 281 284 285 284 282 277 278 276 273 273 273 273 270 270 268 265 267 267 267 264 259 255 250 247 246 246 245 243 242 243 243 243 242 241
351 346 345 351 358 1 1 10 15 11 18 20 5 301 23 1 329 42 35 73 78 16 321 15 323 305 328 325 340 344 332 283 263 328 7 350 328 319 342 334 292 274 330 312 287 271 258 264 279 297 307 307 298 289 285 283 278 276 277 277 276 273 275 279 277 274 268 263 266 266 266 267 266 264 259 253 250 246 243 244 242 240 241 242 243 243 242 242
353 347 343 349 357 2 1 2 13 14 21 24 22 47 58 26 358 355 321 217 101 62 261 283 274 295 335 312 333 334 310 298 293 2 11 348 335 345 345 327 320 327 331 299 274 275 260 269 312 326 319 306 290 280 275 275 275 274 274 276 274 273 280 280 276 272 263 258 266 268 269 272 271 267 261 252 247 246 241 240 241 239 239 238 238 239 239 241
353 349 343 348 357 2 3 356 10 20 29 23 34 53 53 25 354 302 283 274 103 102 287 354 321 341 358 359 2 322 308 331 331 2 6 344 340 348 323 328 331 307 302 309 306 303 288 300 334 331 309 293 282 273 271 273 274 271 271 274 275 280 282 277 278 273 261 262 272 276 276 274 272 267 260 250 244 243 238 236 238 238 237 235 235 235 235 236
353 351 347 346 355 3 8 12 1 21 37 28 47 56 37 8 344 270 272 271 181 81 59 36 348 351 359 348 327 319 314 352 337 354 3 342 335 324 314 340 316 292 314 331 303 286 287 298 317 314 296 288 283 274 274 276 275 271 270 273 274 280 281 280 286 280 269 266 265 271 275 269 266 262 257 247 237 237 236 235 236 235 234 232 232 234 234 233
352 352 354 345 351 4 1 4 34 14 358 53 68 54 6 356 335 264 274 253 190 78 100 85 351 8 349 323 328 329 305 349 359 2 358 341 331 316 311 325 290 309 340 321 296 283 296 316 313 305 304 295 288 283 282 281 281 281 277 277 278 282 282 280 282 281 274 267 253 257 269 271 270 264 261 253 232 228 231 231 233 234 232 230 227 228 230 230
350 353 359 353 355 357 344 114 47 343 285 125 74 360 334 334 312 257 273 242 160 38 9 345 351 7 349 338 341 322 271 17 17 357 352 342 319 304 304 306 245 315 329 310 299 276 294 322 291 296 309 302 290 286 286 279 271 283 320 333 294 286 284 280 280 277 274 282 277 251 264 277 277 264 258 254 242 233 230 230 230 231 231 230 226 224 225 225
348 351 357 2 2 354 347 18 359 323 293 69 29 298 315 313 285 231 255 229 102 9 340 348 355 348 345 347 343 320 283 342 334 359 10 348 301 270 287 328 321 296 315 304 312 348 298 312 309 306 308 301 295 298 310 295 265 282 19 2 292 286 284 283 283 276 275 288 282 259 260 274 275 269 264 253 248 247 242 240 238 233 230 230 228 225 224 222
350 352 355 2 4 4 20 1 332 345 16 354 294 297 305 285 237 229 254 227 42 346 325 7 354 323 334 337 347 2 360 327 324 15 8 336 298 274 269 314 313 301 308 288 322 5 341 322 327 320 309 301 305 316 327 289 261 285 337 317 290 289 286 284 283 277 282 288 279 263 261 271 270 270 269 252 244 247 245 245 246 239 230 229 229 227 224 221
356 357 355 359 8 16 27 43 355 3 1 302 294 307 289 232 207 234 251 328 26 354 294 358 335 322 338 343 5 18 12 335 346 345 335 302 245 281 293 330 313 304 291 249 284 326 324 327 330 312 299 308 315 317 307 266 262 297 321 301 287 283 278 277 275 278 288 280 274 277 273 272 278 279 272 258 246 246 249 250 247 239 231 225 225 227 223 218
6 2 356 2 21 10 1 83 62 330 302 299 306 299 225 191 220 245 269 26 1 10 344 323 338 339 344 350 12 9 1 5 350 327 326 307 217 282 327 269 285 292 266 227 248 277 286 295 305 279 283 310 319 310 290 264 272 293 296 286 286 281 272 271 270 275 280 267 269 281 279 271 279 284 273 271 269 264 268 266 254 243 233 224 219 223 222 216
16 10 6 14 32 13 346 86 360 319 307 309 292 217 199 209 256 274 47 58 303 350 355 339 348 349 349 354 6 359 353 7 358 352 2 1 66 23 19 35 297 304 303 325 310 302 300 294 147 163 270 301 313 308 296 269 269 279 279 282 290 285 269 260 255 249 251 260 278 293 286 271 265 266 261 265 278 267 267 273 268 256 243 231 219 215 218 217
36 26 30 31 33 25 5 341 334 321 318 307 205 197 226 236 350 13 21 319 264 348 3 346 341 344 344 348 2 356 345 2 1 0 6 350 9 33 29 25 8 355 356 352 341 338 350 18 108 135 196 297 312 324 324 286 268 269 273 283 289 288 280 256 241 234 243 261 288 295 286 275 260 264 272 271 268 264 264 269 266 259 251 242 227 212 211 217
61 47 46 36 32 24 359 339 337 331 333 172 191 222 254 266 37 21 345 2 4 347 340 324 326 333 340 348 4 358 344 3 359 354 5 353 3 45 66 44 19 9 354 341 338 345 356 41 117 70 344 295 296 322 329 316 302 289 286 288 285 285 285 275 267 269 266 271 294 303 286 274 264 272 281 276 280 281 276 273 265 260 253 246 240 221 208 210
71 54 45 30 25 16 359 350 345 338 176 180 218 247 265 31 57 181 341 10 4 330 324 325 324 328 359 12 9 4 360 15 6 355 4 15 20 33 45 36 20 8 348 341 347 347 331 327 72 356 342 208 285 311 312 306 294 282 285 276 271 280 276 280 289 289 290 291 296 297 270 267 275 313 320 299 297 294 282 280 273 264 255 244 240 227 210 203
80 49 41 29 17 5 359 354 347 340 187 218 256 264 49 54 61 33 7 355 339 330 325 326 327 333 10 23 12 24 36 9 359 357 12 23 25 22 16 19 18 7 354 351 351 340 324 310 275 309 300 275 308 321 301 284 286 280 278 251 256 282 266 264 276 278 286 293 287 268 258 268 281 295 296 288 284 276 261 264 265 264 258 241 232 227 217 205
132 41 38 29 11 359 356 354 353 348 212 253 289 65 55 49 25 12 13 340 332 334 323 333 7 356 5 9 2 22 28 342 346 354 20 18 25 27 17 16 16 5 358 350 334 336 330 311 301 307 300 291 324 334 310 241 299 311 271 267 281 278 262 267 274 269 268 275 275 265 272 281 287 289 287 280 285 281 255 247 248 254 254 242 230 226 225 212
202 351 30 22 8 359 356 1 355 279 242 278 47 68 60 68 26 6 3 338 324 320 324 357 24 2 360 359 356 2 353 339 349 353 3 5 36 28 16 21 17 3 3 354 324 347 319 302 310 318 314 329 325 318 285 193 248 300 323 343 315 260 241 256 276 278 266 270 277 279 287 297 304 310 322 315 320 341 325 279 260 246 241 239 232 224 226 221
224 275 148 20 3 356 358 10 349 270 264 35 92 90 65 76 48 5 351 343 313 308 338 12 13 356 358 349 345 355 350 347 357 349 353 10 38 28 11 13 7 356 3 356 307 323 306 300 311 97 332 338 311 290 313 183 219 261 314 331 318 288 276 247 269 298 294 291 292 296 300 301 307 324 335 342 360 9 355 335 308 276 245 235 232 226 224 223
228 258 184 13 354 348 354 356 329 276 290 58 91 94 59 50 57 15 348 338 297 315 353 14 6 352 355 346 340 351 350 345 349 346 356 6 9 31 18 2 346 349 353 344 304 316 318 292 301 296 306 317 305 329 14 44 206 241 302 316 286 282 290 269 279 291 294 296 295 305 310 300 321 349 341 338 347 339 332 326 313 302 275 242 236 233 228 224
250 265 138 4 346 345 353 322 316 355 56 56 54 73 73 29 33 21 9 339 308 329 355 360 1 348 347 349 346 350 346 334 340 343 352 360 357 30 27 4 343 348 346 337 331 337 337 229 279 313 320 314 344 30 18 8 7 9 2 357 334 304 286 275 275 257 268 293 294 304 308 304 334 360 349 336 334 328 322 313 305 297 278 253 238 238 236 230
262 262 78 355 344 344 274 288 26 34 62 79 63 75 50 353 341 1 51 343 311 359 340 336 351 347 345 350 349 351 341 323 333 344 344 13 11 6 16 2 344 344 342 339 347 349 347 231 269 307 325 331 19 45 25 1 1 355 13 13 342 318 313 305 295 245 244 276 283 294 298 301 323 354 345 335 329 323 318 312 304 291 274 260 246 242 241 237
276 305 17 351 350 345 235 345 71 27 44 67 45 43 3 333 316 339 26 299 291 278 281 310 347 349 350 352 344 343 335 312 317 342 335 355 360 350 356 352 336 335 341 341 345 349 338 279 267 288 301 320 36 54 52 21 2 334 7 16 339 320 330 324 317 323 297 272 271 276 275 277 299 333 324 325 323 317 313 307 301 291 275 258 247 246 245 242
342 35 9 353 357 319 256 27 94 47 57 74 26 52 318 310 321 332 344 349 342 336 322 333 354 351 351 352 341 329 327 312 297 324 334 337 357 6 352 339 331 340 351 345 341 348 341 303 299 307 301 105 89 81 110 79 14 358 320 348 341 330 325 305 286 295 294 285 293 286 271 284 331 338 319 318 319 316 312 306 300 295 283 262 247 246 249 247
13 36 20 4 6 330 268 23 59 39 60 95 87 79 128 274 351 339 327 357 4 341 330 342 357 349 344 344 337 323 322 316 304 323 329 327 346 359 346 338 338 349 1 354 338 340 335 325 336 336 339 28 79 64 117 50 1 353 310 300 324 323 320 308 284 279 273 298 322 306 284 297 317 321 318 321 322 318 314 309 298 289 284 270 252 245 249 251
291 204 152 25 25 32 48 29 14 41 63 68 70 59 43 152 81 354 319 321 344 335 330 339 345 334 335 338 337 333 332 322 309 319 316 316 329 338 339 339 339 353 2 348 328 323 309 313 338 342 340 335 327 335 337 323 332 334 314 314 329 336 338 330 309 300 303 322 321 295 285 300 306 311 318 325 326 320 316 311 300 287 280 273 262 249 243 246
304 6 9 52 50 58 87 57 1 24 42 13 60 46 2 2 90 58 288 280 337 338 322 317 325 325 336 344 340 331 336 332 301 294 306 318 325 329 331 330 340 359 353 337 331 335 299 289 339 321 290 300 302 302 297 297 314 323 325 333 335 339 341 335 327 323 314 311 302 277 284 303 307 312 320 324 324 321 316 310 302 291 278 271 267 259 247 240
316 5 4 344 42 65 98 82 27 29 24 332 337 28 1 350 3 31 223 254 352 338 317 281 323 340 347 350 341 318 329 333 314 296 311 316 320 327 330 329 10 360 347 335 349 353 298 311 357 335 283 281 280 279 276 279 293 283 313 332 335 336 338 336 329 314 306 307 305 302 309 308 305 311 320 324 323 321 317 310 299 289 281 271 263 261 256 242
4 97 34 328 318 20 34 23 13 15 22 342 318 356 349 359 14 13 311 283 291 318 326 272 321 346 350 345 336 326 326 329 336 342 331 325 328 331 336 343 358 354 348 343 358 357 302 324 354 340 310 296 290 286 279 285 275 194 300 342 339 336 339 335 319 309 307 301 294 298 305 303 299 310 322 324 321 318 316 310 295 282 276 269 257 255 256 242
47 115 104 261 290 16 16 344 324 289 327 360 156 52 355 360 19 13 325 288 286 287 344 313 326 343 343 333 329 328 327 329 331 330 328 330 329 329 344 357 349 351 351 348 356 354 322 331 351 340 312 298 310 321 320 318 228 189 339 352 344 336 338 331 311 307 304 288 282 292 300 300 304 318 323 322 319 316 314 310 300 285 274 267 253 245 249 241
25 31 64 225 220 42 10 286 284 266 222 289 234 64 1 336 4 355 299 266 289 321 344 320 327 333 329 327 332 326 326 318 302 297 306 315 318 330 1 3 347 347 350 350 353 350 336 336 341 332 302 288 330 338 334 334 196 178 343 351 345 339 342 338 321 318 318 304 297 303 305 308 322 323 318 318 319 320 320 321 321 313 297 280 255 233 238 240
19 4 309 270 190 91 286 239 277 279 236 37 2 39 343 327 9 338 293 238 259 299 328 321 323 325 320 326 337 333 331 315 297 292 291 286 283 301 343 347 341 343 347 347 346 345 343 336 330 331 328 353 4 349 331 327 222 159 353 349 348 346 343 336 324 324 324 312 310 323 327 323 321 317 313 317 324 328 329 329 329 325 319 310 285 250 241 237
7 189 264 279 250 113 312 284 257 284 8 41 360 357 310 325 350 318 307 216 231 277 312 312 315 316 316 336 347 338 325 307 294 292 286 271 263 269 288 304 313 331 345 345 342 347 348 341 338 343 334 339 359 344 320 317 325 95 2 352 349 342 334 327 322 323 323 313 324 335 330 311 311 313 315 319 325 331 329 323 318 313 311 315 307 288 269 245